iso_date,epoch_date,Year,Hour,Min,DOY,POS_DOY,Lat,Lon,BP,Ts,Ta,has_bp,has_ts,has_ta,BuoyID,Buoy_Type,Buoy_Owner,Logistics,Hemisphere
2013-09-03T05:09:36Z,1378184976,2013,5,10,246.215,-999.0,71.4008,-148.862,1008.4,3.24,-999.0,yes,yes,no,300234011243770,UPTEMPO,PSC-UPTEMPO,Healy,North
2013-09-03T05:15:21Z,1378185322,2013,5,15,246.219,-999.0,71.4014,-148.8634,1008.6,3.24,-999.0,yes,yes,no,300234011243770,UPTEMPO,PSC-UPTEMPO,Healy,North
2013-09-03T05:19:40Z,1378185581,2013,5,20,246.222,-999.0,71.402,-148.8646,1008.4,3.2,-999.0,yes,yes,no,300234011243770,UPTEMPO,PSC-UPTEMPO,Healy,North
2013-09-03T05:25:26Z,1378185926,2013,5,25,246.226,-999.0,71.4026,-148.8656,1008.4,3.2,-999.0,yes,yes,no,300234011243770,UPTEMPO,PSC-UPTEMPO,Healy,North
2013-09-03T05:31:12Z,1378186272,2013,5,31,246.23,-999.0,71.4036,-148.8676,1008.5,3.2,-999.0,yes,yes,no,300234011243770,UPTEMPO,PSC-UPTEMPO,Healy,North
2013-09-03T06:00:00Z,1378188000,2013,6,0,246.25,-999.0,71.407,-148.8742,1008.4,3.22,-999.0,yes,yes,no,300234011243770,UPTEMPO,PSC-UPTEMPO,Healy,North
2013-09-03T07:00:28Z,1378191629,2013,7,0,246.292,-999.0,71.4148,-148.8864,1008.3,3.2,-999.0,yes,yes,no,300234011243770,UPTEMPO,PSC-UPTEMPO,Healy,North
2013-09-03T07:59:31Z,1378195171,2013,8,0,246.333,-999.0,71.423,-148.899,1008.2,3.12,-999.0,yes,yes,no,300234011243770,UPTEMPO,PSC-UPTEMPO,Healy,North
2013-09-03T09:00:00Z,1378198800,2013,9,0,246.375,-999.0,71.432,-148.9102,1008.0,3.08,-999.0,yes,yes,no,300234011243770,UPTEMPO,PSC-UPTEMPO,Healy,North
2013-09-03T10:00:28Z,1378202429,2013,10,0,246.417,-999.0,71.432,-148.9102,1007.5,2.96,-999.0,yes,yes,no,300234011243770,UPTEMPO,PSC-UPTEMPO,Healy,North
2013-09-03T10:59:31Z,1378205971,2013,11,0,246.458,-999.0,71.4534,-148.9314,1006.6,2.88,-999.0,yes,yes,no,300234011243770,UPTEMPO,PSC-UPTEMPO,Healy,North
2013-09-03T12:00:00Z,1378209600,2013,12,0,246.5,-999.0,71.4594,-148.9436,1005.7,2.84,-999.0,yes,yes,no,300234011243770,UPTEMPO,PSC-UPTEMPO,Healy,North
2013-09-03T13:00:28Z,1378213229,2013,13,0,246.542,-999.0,71.4672,-148.9568,1005.5,2.8,-999.0,yes,yes,no,300234011243770,UPTEMPO,PSC-UPTEMPO,Healy,North
2013-09-03T13:59:31Z,1378216771,2013,14,0,246.583,-999.0,71.4672,-148.9568,1005.0,2.76,-999.0,yes,yes,no,300234011243770,UPTEMPO,PSC-UPTEMPO,Healy,North
2013-09-03T15:00:00Z,1378220400,2013,15,0,246.625,-999.0,71.4858,-148.9904,1004.3,2.68,-999.0,yes,yes,no,300234011243770,UPTEMPO,PSC-UPTEMPO,Healy,North
2013-09-03T16:00:28Z,1378224029,2013,16,0,246.667,-999.0,71.4858,-148.9904,1003.7,2.56,-999.0,yes,yes,no,300234011243770,UPTEMPO,PSC-UPTEMPO,Healy,North
2013-09-03T16:59:31Z,1378227571,2013,17,0,246.708,-999.0,71.504,-149.0198,1003.5,2.4,-999.0,yes,yes,no,300234011243770,UPTEMPO,PSC-UPTEMPO,Healy,North
2013-09-03T18:00:00Z,1378231200,2013,18,0,246.75,-999.0,71.504,-149.0198,1003.3,2.2,-999.0,yes,yes,no,300234011243770,UPTEMPO,PSC-UPTEMPO,Healy,North
2013-09-03T19:00:28Z,1378234829,2013,19,0,246.792,-999.0,71.504,-149.0198,1002.0,2.04,-999.0,yes,yes,no,300234011243770,UPTEMPO,PSC-UPTEMPO,Healy,North
2013-09-03T19:59:31Z,1378238371,2013,20,0,246.833,-999.0,71.5296,-149.0634,1002.5,1.84,-999.0,yes,yes,no,300234011243770,UPTEMPO,PSC-UPTEMPO,Healy,North
2013-09-03T21:00:00Z,1378242000,2013,21,0,246.875,-999.0,71.5296,-149.0634,1002.4,1.8,-999.0,yes,yes,no,300234011243770,UPTEMPO,PSC-UPTEMPO,Healy,North
2013-09-03T22:00:28Z,1378245629,2013,22,0,246.917,-999.0,71.5296,-149.0634,1002.1,1.76,-999.0,yes,yes,no,300234011243770,UPTEMPO,PSC-UPTEMPO,Healy,North
2013-09-03T22:59:31Z,1378249171,2013,23,0,246.958,-999.0,71.5532,-149.0944,1001.5,1.7,-999.0,yes,yes,no,300234011243770,UPTEMPO,PSC-UPTEMPO,Healy,North
2013-09-04T00:00:00Z,1378252800,2013,0,0,247.0,-999.0,71.5614,-149.1138,1001.1,1.68,-999.0,yes,yes,no,300234011243770,UPTEMPO,PSC-UPTEMPO,Healy,North
2013-09-04T01:00:28Z,1378256429,2013,1,0,247.042,-999.0,71.568,-149.1254,1000.6,1.68,-999.0,yes,yes,no,300234011243770,UPTEMPO,PSC-UPTEMPO,Healy,North
2013-09-04T01:59:31Z,1378259971,2013,2,0,247.083,-999.0,71.5708,-149.1398,1000.2,1.6,-999.0,yes,yes,no,300234011243770,UPTEMPO,PSC-UPTEMPO,Healy,North
2013-09-04T03:00:00Z,1378263600,2013,3,0,247.125,-999.0,71.5754,-149.1556,999.8,1.58,-999.0,yes,yes,no,300234011243770,UPTEMPO,PSC-UPTEMPO,Healy,North
2013-09-04T04:00:28Z,1378267229,2013,4,0,247.167,-999.0,71.5798,-149.1728,999.7,1.56,-999.0,yes,yes,no,300234011243770,UPTEMPO,PSC-UPTEMPO,Healy,North
2013-09-04T04:59:31Z,1378270771,2013,5,0,247.208,-999.0,71.5798,-149.1728,999.6,1.56,-999.0,yes,yes,no,300234011243770,UPTEMPO,PSC-UPTEMPO,Healy,North
2013-09-04T06:00:00Z,1378274400,2013,6,0,247.25,-999.0,71.5872,-149.2158,999.5,1.52,-999.0,yes,yes,no,300234011243770,UPTEMPO,PSC-UPTEMPO,Healy,North
2013-09-04T07:00:28Z,1378278029,2013,7,0,247.292,-999.0,71.5914,-149.2358,999.3,1.48,-999.0,yes,yes,no,300234011243770,UPTEMPO,PSC-UPTEMPO,Healy,North
2013-09-04T07:59:31Z,1378281571,2013,8,0,247.333,-999.0,71.5914,-149.2358,999.5,1.48,-999.0,yes,yes,no,300234011243770,UPTEMPO,PSC-UPTEMPO,Healy,North
2013-09-04T09:00:00Z,1378285200,2013,9,0,247.375,-999.0,71.5914,-149.2358,999.8,1.48,-999.0,yes,yes,no,300234011243770,UPTEMPO,PSC-UPTEMPO,Healy,North
2013-09-04T10:00:28Z,1378288829,2013,10,0,247.417,-999.0,71.5914,-149.2358,999.7,1.4,-999.0,yes,yes,no,300234011243770,UPTEMPO,PSC-UPTEMPO,Healy,North
2013-09-04T10:59:31Z,1378292371,2013,11,0,247.458,-999.0,71.6066,-149.321,999.6,1.4,-999.0,yes,yes,no,300234011243770,UPTEMPO,PSC-UPTEMPO,Healy,North
2013-09-04T12:00:00Z,1378296000,2013,12,0,247.5,-999.0,71.6094,-149.3352,999.8,1.4,-999.0,yes,yes,no,300234011243770,UPTEMPO,PSC-UPTEMPO,Healy,North
2013-09-04T13:00:28Z,1378299629,2013,13,0,247.542,-999.0,71.6144,-149.3596,999.9,1.4,-999.0,yes,yes,no,300234011243770,UPTEMPO,PSC-UPTEMPO,Healy,North
2013-09-04T13:59:31Z,1378303171,2013,14,0,247.583,-999.0,71.6144,-149.3596,1000.0,1.36,-999.0,yes,yes,no,300234011243770,UPTEMPO,PSC-UPTEMPO,Healy,North
2013-09-04T15:00:00Z,1378306800,2013,15,0,247.625,-999.0,71.6226,-149.3872,1000.0,1.36,-999.0,yes,yes,no,300234011243770,UPTEMPO,PSC-UPTEMPO,Healy,North
2013-09-04T16:00:28Z,1378310429,2013,16,0,247.667,-999.0,71.6266,-149.3932,1000.1,1.36,-999.0,yes,yes,no,300234011243770,UPTEMPO,PSC-UPTEMPO,Healy,North
2013-09-04T16:59:31Z,1378313971,2013,17,0,247.708,-999.0,71.6312,-149.3982,1000.2,1.36,-999.0,yes,yes,no,300234011243770,UPTEMPO,PSC-UPTEMPO,Healy,North
2013-09-04T18:00:00Z,1378317600,2013,18,0,247.75,-999.0,71.6334,-149.4038,1000.4,1.36,-999.0,yes,yes,no,300234011243770,UPTEMPO,PSC-UPTEMPO,Healy,North
2013-09-04T19:00:28Z,1378321229,2013,19,0,247.792,-999.0,71.6334,-149.4038,1000.6,1.36,-999.0,yes,yes,no,300234011243770,UPTEMPO,PSC-UPTEMPO,Healy,North
2013-09-04T19:59:31Z,1378324771,2013,20,0,247.833,-999.0,71.6374,-149.4222,1001.2,1.36,-999.0,yes,yes,no,300234011243770,UPTEMPO,PSC-UPTEMPO,Healy,North
2013-09-04T21:00:00Z,1378328400,2013,21,0,247.875,-999.0,71.6374,-149.4222,1001.6,1.36,-999.0,yes,yes,no,300234011243770,UPTEMPO,PSC-UPTEMPO,Healy,North
2013-09-04T22:00:28Z,1378332029,2013,22,0,247.917,-999.0,71.6374,-149.4222,1001.9,1.32,-999.0,yes,yes,no,300234011243770,UPTEMPO,PSC-UPTEMPO,Healy,North
2013-09-04T22:59:31Z,1378335571,2013,23,0,247.958,-999.0,71.6486,-149.4606,1002.5,1.32,-999.0,yes,yes,no,300234011243770,UPTEMPO,PSC-UPTEMPO,Healy,North
2013-09-05T00:00:00Z,1378339200,2013,0,0,248.0,-999.0,71.652,-149.4682,1002.9,1.28,-999.0,yes,yes,no,300234011243770,UPTEMPO,PSC-UPTEMPO,Healy,North
2013-09-05T01:00:28Z,1378342829,2013,1,0,248.042,-999.0,71.6562,-149.478,1003.3,1.28,-999.0,yes,yes,no,300234011243770,UPTEMPO,PSC-UPTEMPO,Healy,North
2013-09-05T01:59:31Z,1378346371,2013,2,0,248.083,-999.0,71.6604,-149.482,1003.6,1.26,-999.0,yes,yes,no,300234011243770,UPTEMPO,PSC-UPTEMPO,Healy,North
2013-09-05T03:00:00Z,1378350000,2013,3,0,248.125,-999.0,71.6636,-149.4868,1003.9,1.26,-999.0,yes,yes,no,300234011243770,UPTEMPO,PSC-UPTEMPO,Healy,North
2013-09-05T04:00:28Z,1378353629,2013,4,0,248.167,-999.0,71.666,-149.4912,1004.5,1.26,-999.0,yes,yes,no,300234011243770,UPTEMPO,PSC-UPTEMPO,Healy,North
2013-09-05T04:59:31Z,1378357171,2013,5,0,248.208,-999.0,71.6678,-149.4956,1004.8,1.28,-999.0,yes,yes,no,300234011243770,UPTEMPO,PSC-UPTEMPO,Healy,North
2013-09-05T06:00:00Z,1378360800,2013,6,0,248.25,-999.0,71.6692,-149.5022,1005.5,1.32,-999.0,yes,yes,no,300234011243770,UPTEMPO,PSC-UPTEMPO,Healy,North
2013-09-05T07:00:28Z,1378364429,2013,7,0,248.292,-999.0,71.6702,-149.509,1005.9,1.36,-999.0,yes,yes,no,300234011243770,UPTEMPO,PSC-UPTEMPO,Healy,North
2013-09-05T07:59:31Z,1378367971,2013,8,0,248.333,-999.0,71.6708,-149.5182,1006.4,1.36,-999.0,yes,yes,no,300234011243770,UPTEMPO,PSC-UPTEMPO,Healy,North
2013-09-05T09:00:00Z,1378371600,2013,9,0,248.375,-999.0,71.6716,-149.5292,1007.1,1.38,-999.0,yes,yes,no,300234011243770,UPTEMPO,PSC-UPTEMPO,Healy,North
2013-09-05T10:00:28Z,1378375229,2013,10,0,248.417,-999.0,71.6728,-149.5412,1007.5,1.4,-999.0,yes,yes,no,300234011243770,UPTEMPO,PSC-UPTEMPO,Healy,North
2013-09-05T10:59:31Z,1378378771,2013,11,0,248.458,-999.0,71.6742,-149.5518,1008.0,1.36,-999.0,yes,yes,no,300234011243770,UPTEMPO,PSC-UPTEMPO,Healy,North
2013-09-05T12:00:00Z,1378382400,2013,12,0,248.5,-999.0,71.6754,-149.5606,1008.2,1.36,-999.0,yes,yes,no,300234011243770,UPTEMPO,PSC-UPTEMPO,Healy,North
2013-09-05T13:00:28Z,1378386029,2013,13,0,248.542,-999.0,71.6764,-149.5678,1008.3,1.28,-999.0,yes,yes,no,300234011243770,UPTEMPO,PSC-UPTEMPO,Healy,North
2013-09-05T13:59:31Z,1378389571,2013,14,0,248.583,-999.0,71.6772,-149.575,1008.7,1.4,-999.0,yes,yes,no,300234011243770,UPTEMPO,PSC-UPTEMPO,Healy,North
2013-09-05T15:00:00Z,1378393200,2013,15,0,248.625,-999.0,71.679,-149.5818,1008.7,1.4,-999.0,yes,yes,no,300234011243770,UPTEMPO,PSC-UPTEMPO,Healy,North
2013-09-05T16:00:28Z,1378396829,2013,16,0,248.667,-999.0,71.6806,-149.5866,1009.1,1.4,-999.0,yes,yes,no,300234011243770,UPTEMPO,PSC-UPTEMPO,Healy,North
2013-09-05T16:59:31Z,1378400371,2013,17,0,248.708,-999.0,71.6824,-149.5892,1009.6,1.48,-999.0,yes,yes,no,300234011243770,UPTEMPO,PSC-UPTEMPO,Healy,North
2013-09-05T18:00:00Z,1378404000,2013,18,0,248.75,-999.0,71.6832,-149.59,1009.8,1.48,-999.0,yes,yes,no,300234011243770,UPTEMPO,PSC-UPTEMPO,Healy,North
2013-09-05T19:00:28Z,1378407629,2013,19,0,248.792,-999.0,71.6832,-149.5916,1010.0,1.52,-999.0,yes,yes,no,300234011243770,UPTEMPO,PSC-UPTEMPO,Healy,North
2013-09-05T19:59:31Z,1378411171,2013,20,0,248.833,-999.0,71.6828,-149.5936,1010.4,1.52,-999.0,yes,yes,no,300234011243770,UPTEMPO,PSC-UPTEMPO,Healy,North
2013-09-05T21:00:00Z,1378414800,2013,21,0,248.875,-999.0,71.6824,-149.5988,1010.7,1.56,-999.0,yes,yes,no,300234011243770,UPTEMPO,PSC-UPTEMPO,Healy,North
2013-09-05T22:00:28Z,1378418429,2013,22,0,248.917,-999.0,71.682,-149.606,1011.2,1.6,-999.0,yes,yes,no,300234011243770,UPTEMPO,PSC-UPTEMPO,Healy,North
2013-09-05T22:59:31Z,1378421971,2013,23,0,248.958,-999.0,71.6842,-149.6152,1011.6,1.68,-999.0,yes,yes,no,300234011243770,UPTEMPO,PSC-UPTEMPO,Healy,North
2013-09-06T00:00:00Z,1378425600,2013,0,0,249.0,-999.0,71.6804,-149.6274,1011.8,1.76,-999.0,yes,yes,no,300234011243770,UPTEMPO,PSC-UPTEMPO,Healy,North
2013-09-06T01:00:28Z,1378429229,2013,1,0,249.042,-999.0,71.6822,-149.6264,1011.9,1.84,-999.0,yes,yes,no,300234011243770,UPTEMPO,PSC-UPTEMPO,Healy,North
2013-09-06T01:59:31Z,1378432771,2013,2,0,249.083,-999.0,71.6832,-149.634,1012.0,1.92,-999.0,yes,yes,no,300234011243770,UPTEMPO,PSC-UPTEMPO,Healy,North
2013-09-06T03:00:00Z,1378436400,2013,3,0,249.125,-999.0,71.6846,-149.6394,1012.0,1.96,-999.0,yes,yes,no,300234011243770,UPTEMPO,PSC-UPTEMPO,Healy,North
2013-09-06T04:00:28Z,1378440029,2013,4,0,249.167,-999.0,71.6858,-149.6416,1012.2,2.0,-999.0,yes,yes,no,300234011243770,UPTEMPO,PSC-UPTEMPO,Healy,North
2013-09-06T04:59:31Z,1378443571,2013,5,0,249.208,-999.0,71.6866,-149.6418,1012.4,2.0,-999.0,yes,yes,no,300234011243770,UPTEMPO,PSC-UPTEMPO,Healy,North
2013-09-06T06:00:00Z,1378447200,2013,6,0,249.25,-999.0,71.687,-149.641,1012.5,2.0,-999.0,yes,yes,no,300234011243770,UPTEMPO,PSC-UPTEMPO,Healy,North
2013-09-06T07:00:28Z,1378450829,2013,7,0,249.292,-999.0,71.6862,-149.6388,1012.7,2.0,-999.0,yes,yes,no,300234011243770,UPTEMPO,PSC-UPTEMPO,Healy,North
2013-09-06T07:59:31Z,1378454371,2013,8,0,249.333,-999.0,71.6854,-149.6388,1013.1,2.0,-999.0,yes,yes,no,300234011243770,UPTEMPO,PSC-UPTEMPO,Healy,North
2013-09-06T09:00:00Z,1378458000,2013,9,0,249.375,-999.0,71.6834,-149.6402,1013.3,2.0,-999.0,yes,yes,no,300234011243770,UPTEMPO,PSC-UPTEMPO,Healy,North
2013-09-06T10:00:28Z,1378461629,2013,10,0,249.417,-999.0,71.6812,-149.6434,1013.3,2.02,-999.0,yes,yes,no,300234011243770,UPTEMPO,PSC-UPTEMPO,Healy,North
2013-09-06T10:59:31Z,1378465171,2013,11,0,249.458,-999.0,71.6792,-149.6494,1013.3,2.04,-999.0,yes,yes,no,300234011243770,UPTEMPO,PSC-UPTEMPO,Healy,North
2013-09-06T12:00:00Z,1378468800,2013,12,0,249.5,-999.0,71.6778,-149.6578,1013.2,2.04,-999.0,yes,yes,no,300234011243770,UPTEMPO,PSC-UPTEMPO,Healy,North
2013-09-06T13:00:28Z,1378472429,2013,13,0,249.542,-999.0,71.6774,-149.6676,1013.1,2.04,-999.0,yes,yes,no,300234011243770,UPTEMPO,PSC-UPTEMPO,Healy,North
2013-09-06T13:59:31Z,1378475971,2013,14,0,249.583,-999.0,71.6776,-149.6774,1013.3,2.04,-999.0,yes,yes,no,300234011243770,UPTEMPO,PSC-UPTEMPO,Healy,North
2013-09-06T15:00:00Z,1378479600,2013,15,0,249.625,-999.0,71.6786,-149.686,1013.4,2.08,-999.0,yes,yes,no,300234011243770,UPTEMPO,PSC-UPTEMPO,Healy,North
2013-09-06T16:00:28Z,1378483229,2013,16,0,249.667,-999.0,71.6804,-149.6916,1013.2,2.12,-999.0,yes,yes,no,300234011243770,UPTEMPO,PSC-UPTEMPO,Healy,North
2013-09-06T16:59:31Z,1378486771,2013,17,0,249.708,-999.0,71.6822,-149.695,1013.3,2.12,-999.0,yes,yes,no,300234011243770,UPTEMPO,PSC-UPTEMPO,Healy,North
2013-09-06T18:00:00Z,1378490400,2013,18,0,249.75,-999.0,71.6838,-149.6938,1013.3,2.12,-999.0,yes,yes,no,300234011243770,UPTEMPO,PSC-UPTEMPO,Healy,North
2013-09-06T19:00:28Z,1378494029,2013,19,0,249.792,-999.0,71.6844,-149.692,1013.3,2.12,-999.0,yes,yes,no,300234011243770,UPTEMPO,PSC-UPTEMPO,Healy,North
2013-09-06T19:59:31Z,1378497571,2013,20,0,249.833,-999.0,71.6834,-149.6898,1013.4,2.12,-999.0,yes,yes,no,300234011243770,UPTEMPO,PSC-UPTEMPO,Healy,North
2013-09-06T21:00:00Z,1378501200,2013,21,0,249.875,-999.0,71.682,-149.6898,1013.1,2.16,-999.0,yes,yes,no,300234011243770,UPTEMPO,PSC-UPTEMPO,Healy,North
2013-09-06T22:00:28Z,1378504829,2013,22,0,249.917,-999.0,71.6802,-149.6924,1013.1,2.16,-999.0,yes,yes,no,300234011243770,UPTEMPO,PSC-UPTEMPO,Healy,North
2013-09-06T22:59:31Z,1378508371,2013,23,0,249.958,-999.0,71.678,-149.6984,1012.8,2.2,-999.0,yes,yes,no,300234011243770,UPTEMPO,PSC-UPTEMPO,Healy,North
2013-09-07T00:00:00Z,1378512000,2013,0,0,250.0,-999.0,71.6766,-149.707,1012.6,2.2,-999.0,yes,yes,no,300234011243770,UPTEMPO,PSC-UPTEMPO,Healy,North
2013-09-07T01:00:28Z,1378515629,2013,1,0,250.042,-999.0,71.676,-149.7188,1012.3,2.24,-999.0,yes,yes,no,300234011243770,UPTEMPO,PSC-UPTEMPO,Healy,North
2013-09-07T01:59:31Z,1378519171,2013,2,0,250.083,-999.0,71.6764,-149.7286,1012.3,2.2,-999.0,yes,yes,no,300234011243770,UPTEMPO,PSC-UPTEMPO,Healy,North
2013-09-07T03:00:00Z,1378522800,2013,3,0,250.125,-999.0,71.6772,-149.739,1012.2,2.2,-999.0,yes,yes,no,300234011243770,UPTEMPO,PSC-UPTEMPO,Healy,North
2013-09-07T04:00:28Z,1378526429,2013,4,0,250.167,-999.0,71.679,-149.7482,1012.0,2.2,-999.0,yes,yes,no,300234011243770,UPTEMPO,PSC-UPTEMPO,Healy,North
2013-09-07T04:59:31Z,1378529971,2013,5,0,250.208,-999.0,71.6806,-149.755,1012.2,2.16,-999.0,yes,yes,no,300234011243770,UPTEMPO,PSC-UPTEMPO,Healy,North
2013-09-07T06:00:00Z,1378533600,2013,6,0,250.25,-999.0,71.6818,-149.7594,1012.3,2.16,-999.0,yes,yes,no,300234011243770,UPTEMPO,PSC-UPTEMPO,Healy,North
2013-09-07T07:00:28Z,1378537229,2013,7,0,250.292,-999.0,71.685,-149.7614,1012.2,2.16,-999.0,yes,yes,no,300234011243770,UPTEMPO,PSC-UPTEMPO,Healy,North
2013-09-07T07:59:31Z,1378540771,2013,8,0,250.333,-999.0,71.6864,-149.7648,1011.6,2.16,-999.0,yes,yes,no,300234011243770,UPTEMPO,PSC-UPTEMPO,Healy,North
2013-09-07T09:00:00Z,1378544400,2013,9,0,250.375,-999.0,71.6864,-149.7648,1011.8,2.12,-999.0,yes,yes,no,300234011243770,UPTEMPO,PSC-UPTEMPO,Healy,North
2013-09-07T10:00:28Z,1378548029,2013,10,0,250.417,-999.0,71.6874,-149.7688,1012.0,2.02,-999.0,yes,yes,no,300234011243770,UPTEMPO,PSC-UPTEMPO,Healy,North
2013-09-07T10:59:31Z,1378551571,2013,11,0,250.458,-999.0,71.6874,-149.7726,1012.1,1.92,-999.0,yes,yes,no,300234011243770,UPTEMPO,PSC-UPTEMPO,Healy,North
2013-09-07T12:00:00Z,1378555200,2013,12,0,250.5,-999.0,71.6878,-149.7786,1012.0,1.92,-999.0,yes,yes,no,300234011243770,UPTEMPO,PSC-UPTEMPO,Healy,North
2013-09-07T13:00:28Z,1378558829,2013,13,0,250.542,-999.0,71.6874,-149.7844,1012.2,1.88,-999.0,yes,yes,no,300234011243770,UPTEMPO,PSC-UPTEMPO,Healy,North
2013-09-07T13:59:31Z,1378562371,2013,14,0,250.583,-999.0,71.6874,-149.7844,1012.3,1.92,-999.0,yes,yes,no,300234011243770,UPTEMPO,PSC-UPTEMPO,Healy,North
2013-09-07T15:00:00Z,1378566000,2013,15,0,250.625,-999.0,71.6884,-149.8094,1012.2,1.92,-999.0,yes,yes,no,300234011243770,UPTEMPO,PSC-UPTEMPO,Healy,North
2013-09-07T16:00:28Z,1378569629,2013,16,0,250.667,-999.0,71.6888,-149.8232,1012.4,2.0,-999.0,yes,yes,no,300234011243770,UPTEMPO,PSC-UPTEMPO,Healy,North
2013-09-07T16:59:31Z,1378573171,2013,17,0,250.708,-999.0,71.691,-149.8384,1012.4,1.96,-999.0,yes,yes,no,300234011243770,UPTEMPO,PSC-UPTEMPO,Healy,North
2013-09-07T18:00:00Z,1378576800,2013,18,0,250.75,-999.0,71.694,-149.852,1012.7,2.0,-999.0,yes,yes,no,300234011243770,UPTEMPO,PSC-UPTEMPO,Healy,North
2013-09-07T19:00:28Z,1378580429,2013,19,0,250.792,-999.0,71.6976,-149.863,1013.3,1.96,-999.0,yes,yes,no,300234011243770,UPTEMPO,PSC-UPTEMPO,Healy,North
2013-09-07T19:59:31Z,1378583971,2013,20,0,250.833,-999.0,71.7002,-149.8696,1013.6,1.92,-999.0,yes,yes,no,300234011243770,UPTEMPO,PSC-UPTEMPO,Healy,North
2013-09-07T21:00:00Z,1378587600,2013,21,0,250.875,-999.0,71.7022,-149.875,1014.0,1.92,-999.0,yes,yes,no,300234011243770,UPTEMPO,PSC-UPTEMPO,Healy,North
2013-09-07T22:00:28Z,1378591229,2013,22,0,250.917,-999.0,71.702,-149.878,1014.2,1.92,-999.0,yes,yes,no,300234011243770,UPTEMPO,PSC-UPTEMPO,Healy,North
2013-09-07T22:59:31Z,1378594771,2013,23,0,250.958,-999.0,71.7022,-149.8818,1014.3,1.92,-999.0,yes,yes,no,300234011243770,UPTEMPO,PSC-UPTEMPO,Healy,North
2013-09-08T00:00:00Z,1378598400,2013,0,0,251.0,-999.0,71.7014,-149.8882,1014.3,1.92,-999.0,yes,yes,no,300234011243770,UPTEMPO,PSC-UPTEMPO,Healy,North
2013-09-08T01:00:28Z,1378602029,2013,1,0,251.042,-999.0,71.6998,-149.896,1014.4,1.96,-999.0,yes,yes,no,300234011243770,UPTEMPO,PSC-UPTEMPO,Healy,North
2013-09-08T01:59:31Z,1378605571,2013,2,0,251.083,-999.0,71.6988,-149.9074,1014.6,2.0,-999.0,yes,yes,no,300234011243770,UPTEMPO,PSC-UPTEMPO,Healy,North
2013-09-08T03:00:00Z,1378609200,2013,3,0,251.125,-999.0,71.6978,-149.9204,1014.7,2.0,-999.0,yes,yes,no,300234011243770,UPTEMPO,PSC-UPTEMPO,Healy,North
2013-09-08T04:00:28Z,1378612829,2013,4,0,251.167,-999.0,71.6984,-149.9328,1014.8,2.0,-999.0,yes,yes,no,300234011243770,UPTEMPO,PSC-UPTEMPO,Healy,North
2013-09-08T04:59:31Z,1378616371,2013,5,0,251.208,-999.0,71.7,-149.943,1014.9,1.92,-999.0,yes,yes,no,300234011243770,UPTEMPO,PSC-UPTEMPO,Healy,North
2013-09-08T06:00:00Z,1378620000,2013,6,0,251.25,-999.0,71.7038,-149.9534,1015.1,1.84,-999.0,yes,yes,no,300234011243770,UPTEMPO,PSC-UPTEMPO,Healy,North
2013-09-08T07:00:28Z,1378623629,2013,7,0,251.292,-999.0,71.7064,-149.959,1015.4,1.82,-999.0,yes,yes,no,300234011243770,UPTEMPO,PSC-UPTEMPO,Healy,North
2013-09-08T07:59:31Z,1378627171,2013,8,0,251.333,-999.0,71.7098,-149.967,1015.1,1.82,-999.0,yes,yes,no,300234011243770,UPTEMPO,PSC-UPTEMPO,Healy,North
2013-09-08T09:00:00Z,1378630800,2013,9,0,251.375,-999.0,71.7126,-149.9694,1015.2,1.82,-999.0,yes,yes,no,300234011243770,UPTEMPO,PSC-UPTEMPO,Healy,North
2013-09-08T10:00:28Z,1378634429,2013,10,0,251.417,-999.0,71.7146,-149.9718,1014.9,1.8,-999.0,yes,yes,no,300234011243770,UPTEMPO,PSC-UPTEMPO,Healy,North
2013-09-08T10:59:31Z,1378637971,2013,11,0,251.458,-999.0,71.7146,-149.9732,1014.9,1.8,-999.0,yes,yes,no,300234011243770,UPTEMPO,PSC-UPTEMPO,Healy,North
2013-09-08T12:00:00Z,1378641600,2013,12,0,251.5,-999.0,71.713,-149.978,1015.0,1.8,-999.0,yes,yes,no,300234011243770,UPTEMPO,PSC-UPTEMPO,Healy,North
2013-09-08T13:00:28Z,1378645229,2013,13,0,251.542,-999.0,71.7108,-149.9878,1014.8,1.72,-999.0,yes,yes,no,300234011243770,UPTEMPO,PSC-UPTEMPO,Healy,North
2013-09-08T13:59:31Z,1378648771,2013,14,0,251.583,-999.0,71.7088,-149.9982,1014.5,1.72,-999.0,yes,yes,no,300234011243770,UPTEMPO,PSC-UPTEMPO,Healy,North
2013-09-08T15:00:00Z,1378652400,2013,15,0,251.625,-999.0,71.7078,-150.0144,1014.4,1.72,-999.0,yes,yes,no,300234011243770,UPTEMPO,PSC-UPTEMPO,Healy,North
2013-09-08T16:00:28Z,1378656029,2013,16,0,251.667,-999.0,71.7078,-150.0144,1014.5,1.72,-999.0,yes,yes,no,300234011243770,UPTEMPO,PSC-UPTEMPO,Healy,North
2013-09-08T16:59:31Z,1378659571,2013,17,0,251.708,-999.0,71.7084,-150.0562,1014.4,1.72,-999.0,yes,yes,no,300234011243770,UPTEMPO,PSC-UPTEMPO,Healy,North
2013-09-08T18:00:00Z,1378663200,2013,18,0,251.75,-999.0,71.7094,-150.0712,1014.3,1.72,-999.0,yes,yes,no,300234011243770,UPTEMPO,PSC-UPTEMPO,Healy,North
2013-09-08T19:00:28Z,1378666829,2013,19,0,251.792,-999.0,71.7118,-150.0844,1014.3,1.72,-999.0,yes,yes,no,300234011243770,UPTEMPO,PSC-UPTEMPO,Healy,North
2013-09-08T19:59:31Z,1378670371,2013,20,0,251.833,-999.0,71.7138,-150.0964,1014.0,1.72,-999.0,yes,yes,no,300234011243770,UPTEMPO,PSC-UPTEMPO,Healy,North
2013-09-08T21:00:00Z,1378674000,2013,21,0,251.875,-999.0,71.7154,-150.1086,1014.0,1.8,-999.0,yes,yes,no,300234011243770,UPTEMPO,PSC-UPTEMPO,Healy,North
2013-09-08T22:00:28Z,1378677629,2013,22,0,251.917,-999.0,71.7158,-150.1212,1014.0,1.84,-999.0,yes,yes,no,300234011243770,UPTEMPO,PSC-UPTEMPO,Healy,North
2013-09-08T22:59:31Z,1378681171,2013,23,0,251.958,-999.0,71.7156,-150.1318,1014.0,1.84,-999.0,yes,yes,no,300234011243770,UPTEMPO,PSC-UPTEMPO,Healy,North
2013-09-09T00:00:00Z,1378684800,2013,0,0,252.0,-999.0,71.7146,-150.147,1014.2,1.92,-999.0,yes,yes,no,300234011243770,UPTEMPO,PSC-UPTEMPO,Healy,North
2013-09-09T01:00:28Z,1378688429,2013,1,0,252.042,-999.0,71.7134,-150.1624,1014.2,1.96,-999.0,yes,yes,no,300234011243770,UPTEMPO,PSC-UPTEMPO,Healy,North
2013-09-09T01:59:31Z,1378691971,2013,2,0,252.083,-999.0,71.7124,-150.1782,1014.3,1.96,-999.0,yes,yes,no,300234011243770,UPTEMPO,PSC-UPTEMPO,Healy,North
2013-09-09T03:00:00Z,1378695600,2013,3,0,252.125,-999.0,71.7118,-150.1964,1014.4,1.96,-999.0,yes,yes,no,300234011243770,UPTEMPO,PSC-UPTEMPO,Healy,North
2013-09-09T04:00:28Z,1378699229,2013,4,0,252.167,-999.0,71.7122,-150.2148,1014.4,1.96,-999.0,yes,yes,no,300234011243770,UPTEMPO,PSC-UPTEMPO,Healy,North
2013-09-09T04:59:31Z,1378702771,2013,5,0,252.208,-999.0,71.7118,-150.2276,1014.4,1.92,-999.0,yes,yes,no,300234011243770,UPTEMPO,PSC-UPTEMPO,Healy,North
2013-09-09T06:00:00Z,1378706400,2013,6,0,252.25,-999.0,71.7162,-150.2458,1014.5,1.92,-999.0,yes,yes,no,300234011243770,UPTEMPO,PSC-UPTEMPO,Healy,North
2013-09-09T07:00:28Z,1378710029,2013,7,0,252.292,-999.0,71.7242,-150.2368,1014.6,1.88,-999.0,yes,yes,no,300234011243770,UPTEMPO,PSC-UPTEMPO,Healy,North
2013-09-09T07:59:31Z,1378713571,2013,8,0,252.333,-999.0,71.7206,-150.2732,1014.4,1.88,-999.0,yes,yes,no,300234011243770,UPTEMPO,PSC-UPTEMPO,Healy,North
2013-09-09T09:00:00Z,1378717200,2013,9,0,252.375,-999.0,71.721,-150.2814,1014.6,1.84,-999.0,yes,yes,no,300234011243770,UPTEMPO,PSC-UPTEMPO,Healy,North
2013-09-09T10:00:28Z,1378720829,2013,10,0,252.417,-999.0,71.722,-150.2906,1014.6,1.84,-999.0,yes,yes,no,300234011243770,UPTEMPO,PSC-UPTEMPO,Healy,North
2013-09-09T10:59:31Z,1378724371,2013,11,0,252.458,-999.0,71.722,-150.2998,1014.7,1.84,-999.0,yes,yes,no,300234011243770,UPTEMPO,PSC-UPTEMPO,Healy,North
2013-09-09T12:00:00Z,1378728000,2013,12,0,252.5,-999.0,71.7218,-150.311,1014.6,1.84,-999.0,yes,yes,no,300234011243770,UPTEMPO,PSC-UPTEMPO,Healy,North
2013-09-09T13:00:28Z,1378731629,2013,13,0,252.542,-999.0,71.7216,-150.3238,1014.5,1.84,-999.0,yes,yes,no,300234011243770,UPTEMPO,PSC-UPTEMPO,Healy,North